This demonstration page uses our WeatherBlox Daily Observations layout. Learn more.

Left ArrowRight Arrow

41.12389, -100.76542

Hourly Observations for September 14, 2020

Temp ( °F °C ) Dew Point ( °F °C ) Humidity (%) Winds ( mph kmh ) Pressure ( in mb ) Visibility ( mi km ) Precip ( " mm )
12:53 am 00:53 Clear 66 18.9 48 8.9 52 52 SSE 8 13 30.17 1022 10 16 0.00 0.00
1:53 am 01:53 Clear 64 17.8 49 9.4 58 58 SSE 5 7 30.18 1022 10 16 0.00 0.00
2:53 am 02:53 Clear 60 15.6 49 9.4 67 67 SSE 5 7 30.19 1022 10 16 0.00 0.00
3:53 am 03:53 Clear 58 14.4 48 8.9 70 70 Calm 30.19 1022 10 16 0.00 0.00
4:53 am 04:53 Clear 55 12.8 47 8.3 74 74 Calm 30.20 1023 10 16 0.00 0.00
5:53 am 05:53 Clear 52 11.1 45 7.2 77 77 Calm 30.21 1023 10 16 0.00 0.00
6:53 am 06:53 Clear 49 9.4 45 7.2 86 86 ENE 3 6 30.24 1024 10 16 0.00 0.00
7:53 am 07:53 Sunny 47 8.3 44 6.7 90 90 Calm 30.27 1025 10 16 0.00 0.00
8:53 am 08:53 Sunny 53 11.7 50 10 89 89 Calm 30.28 1025 10 16 0.00 0.00
9:53 am 09:53 Sunny 61 16.1 52 11.1 72 72 ESE 5 7 30.27 1025 10 16 0.00 0.00
10:53 am 10:53 Sunny 67 19.4 55 12.8 66 66 SSE 3 6 30.27 1025 10 16 0.00 0.00
11:53 am 11:53 Sunny 78 25.6 56 13.3 47 47 SSE 7 11 30.25 1024 10 16 0.00 0.00
12:53 pm 12:53 Sunny 82 27.8 52 11.1 35 35 SSE 10 17 30.21 1023 10 16 0.00 0.00
1:53 pm 13:53 Sunny 85 29.4 47 8.3 27 27 S 15 24 30.18 1022 10 16 0.00 0.00
2:53 pm 14:53 Sunny 85 29.4 45 7.2 25 25 S 13 20 30.16 1021 10 16 0.00 0.00
3:53 pm 15:53 Sunny 85 29.4 47 8.3 27 27 S 16 26 30.15 1021 10 16 0.00 0.00
4:53 pm 16:53 Sunny 85 29.4 48 8.9 28 28 S 15 24 30.14 1021 10 16 0.00 0.00
5:53 pm 17:53 Sunny 83 28.3 47 8.3 28 28 SSE 10 17 30.14 1021 10 16 0.00 0.00
6:53 pm 18:53 Sunny 79 26.1 50 10 36 36 SE 10 17 30.14 1021 10 16 0.00 0.00
7:53 pm 19:53 Clear 73 22.8 49 9.4 43 43 SE 9 15 30.15 1021 10 16 0.00 0.00
8:53 pm 20:53 Clear 63 17.2 49 9.4 60 60 ESE 8 13 30.17 1022 10 16 0.00 0.00
9:53 pm 21:53 Clear 70 21.1 49 9.4 47 47 SE 10 17 30.16 1021 10 16 0.00 0.00
10:53 pm 22:53 Clear 69 20.6 50 10 51 51 SSE 12 19 30.15 1021 10 16 0.00 0.00
11:53 pm 23:53 Clear 68 20 51 10.6 55 55 SSE 14 22 30.14 1021 10 16 0.00 0.00

Powered by AerisWeather